Tracking 30058 objects as of 10-Dec-2024
HD Live streaming from Space Station
objects crossing your sky now

STARLINK-31816

Track STARLINK-31816 now!
10-day predictions
STARLINK-31816 is classified as:


NORAD ID: 59742
Int'l Code: 2024-090N
Perigee: 450.1 km
Apogee: 452.3 km
Inclination: 43.0 °
Period: 93.5 minutes
Semi major axis: 6822 km
RCS: Unknown
Launch date: May 13, 2024
Source: United States (US)
Launch site: AIR FORCE EASTERN TEST RANGE (AFETR)
Your satellite tracking list
Your tracking list is empty




NASA's NSSDC Master Catalog

Two Line Element Set (TLE):
1 59742U 24090N   24345.05526094  .00001722  00000-0  48488-4 0  9999
2 59742  42.9991 238.4583 0001585 287.6749  72.3934 15.40685727 33805
Source of the keplerian elements: AFSPC